Regional Weather Roundup
Issued by NWS Sterling, VA

Home | Current Version | Previous Version | Text Only | Print | Product List | Glossary Off
Versions: 1 2 3 4 5 6 7 8 9 10 11 12 13 14 15 16 17 18 19 20 21 22 23 24 25 26 27 28 29 30 31 32 33 34 35 36 37 38 39 40 41 42 43 44 45 46 47 48 49 50

000
ASUS41 KLWX 312310
RWRLWX

REGIONAL WEATHER ROUNDUP
NATIONAL WEATHER SERVICE BALTIMORE MD/WASHINGTON DC
700 PM EDT MON AUG 31 2015

Note: "FAIR" indicates few or no clouds below 12,000 feet
with no significant weather and/or obstructions to visibility.
 TC=TEMPERATURE CELSIUS

 * =Non NWS site. Station does not report precipitation (e.g. rain,
    snow, etc.), thunder, or fog.

DCZ001-MDZ009-015-VAZ040>042-051-053>054-010000-
WASHINGTON METRO

CITY           SKY/WX    TMP DP  RH WIND       PRES   REMARKS
WASHINGTON NAT MOCLDY    84  67  56 S8        30.03F
DULLES         CLEAR     84  65  52 S6        30.04S
ANDREWS AFB    MOCLDY    83  62  49 S8        30.03F
FT BELVOIR     CLEAR     82  65  56 S3        30.03F
QUANTICO       PTCLDY    82  70  66 S6        30.04F
COLLEGE PARK*  CLEAR     86  61  42 CALM      30.02F
LEESBURG*      CLEAR     86  72  62 SW3       30.05S HX  92
MANASSAS*      CLEAR     82  70  65 SE3       30.04S
GAITHERSBURG*  PTCLDY    84  64  51 CALM      30.07F

$$

MDZ006>007-011-014-010000-
BALTIMORE METRO

CITY           SKY/WX    TMP DP  RH WIND       PRES   REMARKS
BWI AIRPORT    PTCLDY    85  63  47 S3        30.01F
MD SCIENCE CTR   N/A     87  63  44 MISG      30.01F
MARTIN STATE   MOCLDY    82  73  74 S6        30.02F
ANNAPOLIS      CLEAR     82  67  60 S6        30.02F
FORT MEADE*    CLEAR     79  70  73 S3        30.04F

$$

MDZ012-015-019>023-010000-
MARYLAND EASTERN SHORE

CITY           SKY/WX    TMP DP  RH WIND       PRES   REMARKS
OCEAN CITY     CLEAR     81  66  60 W10       30.06R
SALISBURY      CLEAR     79  69  71 SW10      30.05S
BAY BRIDGE AP*   N/A     81  64  57 S5        30.03S
CAMBRIDGE*     CLEAR     81  68  65 S6        30.05S
EASTON*        PTCLDY    82  68  61 SW5       30.08S

$$

MDZ017>025-010000-
SOUTHERN MARYLAND

CITY           SKY/WX    TMP DP  RH WIND       PRES   REMARKS
PATUXENT RIVER PTCLDY    80  70  71 S6        30.05R
ST INIGOES     PTCLDY    81  71  71 S9        30.04S
LEONARDTOWN*   NOT AVBL

$$

MDZ003>005-010000-
NORTH CENTRAL MARYLAND

CITY           SKY/WX    TMP DP  RH WIND       PRES   REMARKS
FREDERICK*     NOT AVBL
HAGERSTOWN APT CLEAR     86  61  42 SW6       30.03F
WESTMINSTER*   PTCLDY    82  68  61 W5        30.05S

$$

MDZ501>502-010000-
WESTERN MARYLAND

CITY           SKY/WX    TMP DP  RH WIND       PRES   REMARKS
OAKLAND*       PTCLDY    72  63  73 SW3       30.18S
CUMBERLAND*    PTCLDY    81  68  65 CALM      30.10R

$$

VAZ025>031-010000-
SHENANDOAH VALLEY

CITY           SKY/WX    TMP DP  RH WIND       PRES   REMARKS
WINCHESTER*    PTCLDY    82  63  51 S3        30.05S
FRONT ROYAL*   MOCLDY    81  64  57 CALM      30.05R
LURAY*         FAIR      82  61  47 SW5       30.06R
NEW MARKET*    CLOUDY    77  67  72 CALM      30.04R
STAUNTON*      MOCLDY    83  63  50 CALM      30.10S
WAYNESBORO*    CLOUDY    83  62  49 CALM      30.10S

$$

WVZ021-048>050-054>055-010000-
EASTERN WEST VIRGINIA PANHANDLE

CITY           SKY/WX    TMP DP  RH WIND       PRES   REMARKS
MARTINSBURG    PTCLDY    84  66  54 SE3       30.04F
PETERSBURG*    MOCLDY    81  70  69 CALM      30.07S

$$

VAZ036>039-050-010000-
CENTRAL FOOTHILLS

CITY           SKY/WX    TMP DP  RH WIND       PRES   REMARKS
CHARLOTTESVILL CLEAR     85  62  46 SE5       30.05S
CULPEPER*      MOCLDY    83  67  57 CALM      30.04F
ORANGE*        CLOUDY    82  63  51 SE3       30.06S
GORDONSVILLE*  FAIR      80  70  71 CALM      30.04F
WARRENTON*     FAIR      84  69  60 SE3       30.04S

$$

VAZ055>057-010000-
NORTH AND CENTRAL PIEDMONT

CITY           SKY/WX    TMP DP  RH WIND       PRES   REMARKS
FREDERICKSBRG* CLEAR     86  67  53 S5        30.03S
STAFFORD*      CLEAR     83  65  54 E6        30.08S

$$

NCZ024-NYZ072-PAZ021-071-VAZ022-071-010000-
OTHER REGIONAL OBSERVATIONS

CITY           SKY/WX    TMP DP  RH WIND       PRES   REMARKS
NEW YORK CITY  CLEAR     87  64  46 W8        29.98S
PHILADELPHIA   PTCLDY    86  69  56 SW12      30.00S HX  90
PITTSBURGH     PTCLDY    85  63  47 NW7       30.06R
ROANOKE        MOCLDY    83  62  49 NE6       30.10S
RICHMOND       MOCLDY    79  69  71 S9        30.06F
RALEIGH        MOCLDY    75  70  84 CALM      30.07S

$$

ANZ530>537-010000-
MARINE OBSERVATIONS

STATION/POSITION TIME  TEMP    WIND        PRES
                       AIR SEA DIR/SP/G
                 (UTC) (F)     (DEG/KT/KT) (MB)
THOMAS PT LIGHT  NOT AVBL
BALT KEY BRIDGE  2200   85     200/  6/  7 1016.5S
COVE POINT       2200   81     190/  8/  8 1018.0F
LEWISETTA        2200   83 80  200/  6/  7 1017.2F
SOLOMONS ISLAND  2200      80                N/A
PINEY POINT      2205          160/  3/  5   N/A

$$



USA.gov is the U.S. government's official web portal to all federal, state and local government web resources and services.